This demonstration page uses our WeatherBlox Daily Observations layout. Learn more.

Left ArrowRight Arrow

39.95238, -75.16362

Hourly Observations for February 18, 2017

Temp ( °F °C ) Dew Point ( °F °C ) Humidity (%) Winds ( mph kmh ) Pressure ( in mb ) Visibility ( mi km ) Precip ( " mm )
12:54 am 00:54 Clear 33 0.6 22 -5.6 64 64 SW 5 7 29.92 1013 10 16 0.00 0.00
1:54 am 01:54 Clear 32 0 23 -5 69 69 Calm 29.92 1013 10 16 0.00 0.00
2:54 am 02:54 Clear 31 -0.6 22 -5.6 69 69 Calm 29.91 1013 10 16 0.00 0.00
3:54 am 03:54 Clear 31 -0.6 21 -6.1 67 67 Calm 29.90 1013 10 16 0.00 0.00
4:54 am 04:54 Clear 30 -1.1 23 -5 75 75 Calm 29.89 1012 10 16 0.00 0.00
5:54 am 05:54 Clear 30 -1.1 24 -4.4 79 79 E 3 6 29.88 1012 10 16 0.00 0.00
6:54 am 06:54 Mostly Sunny 30 -1.1 23 -5 75 75 Calm 29.88 1012 10 16 0.00 0.00
7:54 am 07:54 Mostly Sunny 34 1.1 25 -3.9 70 70 Calm 29.88 1012 10 16 0.00 0.00
8:54 am 08:54 Mostly Sunny 39 3.9 28 -2.2 65 65 WSW 8 13 29.90 1013 10 16 0.00 0.00
9:54 am 09:54 Mostly Sunny 43 6.1 31 -0.6 63 63 SW 8 13 29.88 1012 10 16 0.00 0.00
10:54 am 10:54 Mostly Sunny 48 8.9 31 -0.6 52 52 WSW 8 13 29.85 1011 10 16 0.00 0.00
11:54 am 11:54 Partly Cloudy 55 12.8 31 -0.6 40 40 WSW 9 15 29.80 1009 10 16 0.00 0.00
12:54 pm 12:54 Partly Cloudy 61 16.1 31 -0.6 32 32 SW 16 26 29.76 1008 10 16 0.00 0.00
1:54 pm 13:54 Partly Cloudy 65 18.3 33 0.6 31 31 WSW 15 24 29.73 1007 10 16 0.00 0.00
2:54 pm 14:54 Mostly Cloudy 66 18.9 34 1.1 30 30 SW 16 26 29.72 1006 10 16 0.00 0.00
3:54 pm 15:54 Mostly Cloudy 66 18.9 34 1.1 30 30 SW 13 20 29.71 1006 10 16 0.00 0.00
4:54 pm 16:54 Mostly Cloudy 66 18.9 33 0.6 29 29 SW 12 19 29.71 1006 10 16 0.00 0.00
5:54 pm 17:54 Partly Cloudy 61 16.1 32 0 34 34 WSW 12 19 29.73 1007 10 16 0.00 0.00
6:54 pm 18:54 Mostly Cloudy 60 15.6 33 0.6 36 36 SW 10 17 29.74 1007 10 16 0.00 0.00
7:54 pm 19:54 Mostly Cloudy 57 13.9 34 1.1 42 42 SW 10 17 29.74 1007 10 16 0.00 0.00
8:54 pm 20:54 Mostly Cloudy 57 13.9 34 1.1 42 42 SW 12 19 29.73 1007 10 16 0.00 0.00
9:54 pm 21:54 Cloudy 51 10.6 36 2.2 56 56 WSW 7 11 29.73 1007 10 16 0.00 0.00
10:54 pm 22:54 Cloudy 53 11.7 36 2.2 52 52 SW 10 17 29.72 1007 10 16 0.00 0.00
11:54 pm 23:54 Cloudy 53 11.7 36 2.2 52 52 SW 10 17 29.75 1007 10 16 0.00 0.00

Powered by AerisWeather